OKEAN-3

Last updated on Sat Apr 13 2024 01:02:09 GMT+0100 (British Summer Time)

1 21397U 91039A 24103.57520994 .00003750 00000+0 31781-3 0 9992 2 21397 82.5163 287.8441 0016642 166.7184 193.4480 14.97618010760576
UTC large
Height (km)
Speed (km/s)
/
Latitude / Longitude
Inclination (degrees)
Orbital Period (minutes)
Azimuth
Elevation
Range (km)
Doppler Factor

Next 0 passes for location: London (51.5072 / 0.1276)

Sorry there are no passes over London.